Stations météo

réclame
Mon MeteoGroup
Edsbyn, Suède (2336): Température de l'air & dewpoint: 19.05.2018 12:00:00 - 25.05.2018 12:00:00 (CEST)Edsbyn, Suède (2336): Vitesse du vent: 19.05.2018 12:00:00 - 25.05.2018 12:00:00 (CEST)Edsbyn, Suède (2336): Direction du vent: 19.05.2018 12:00:00 - 25.05.2018 12:00:00 (CEST)Edsbyn, Suède (2336): reduced air pressure: 19.05.2018 12:00:00 - 25.05.2018 12:00:00 (CEST)Edsbyn, Suède (2336): visibility: 19.05.2018 12:00:00 - 25.05.2018 12:00:00 (CEST)
Date & Time tt [°C] td [°C] ff [km/h] ff [knt] dd ppp [hPa] vv [km]
25.05.2018 12:00:00 18,8 6,9 14 8 SSE 1026,4 50
25.05.2018 11:00:00 18,6 6,8 11 6 SE 1026,6 30
25.05.2018 10:00:00 17,4 5,3 7 4 SE 1026,5 45
25.05.2018 09:00:00 15,6 5,8 7 4 SE 1026,5 40
25.05.2018 08:00:00 13,2 4,1 4 2 WSW 1026,5 45
25.05.2018 07:00:00 10,6 3,4 4 2 NW 1026,6 40
25.05.2018 06:00:00 7,5 2,4 11 6 NW 1026,7 50
25.05.2018 05:00:00 5,8 1,7 18 10 NW 1026,7 50
25.05.2018 04:00:00 5,7 1,6 11 6 NW 1026,7 50
25.05.2018 03:00:00 5,3 2,1 7 4 NW 1026,8 50
25.05.2018 02:00:00 5,8 3,1 4 2 NW 1027,0 50
25.05.2018 01:00:00 7,3 3,7 0 0 N 1027,2 50
25.05.2018 00:00:00 8,7 2,9 7 4 E 1027,3 50
24.05.2018 23:00:00 10,2 2,3 7 4 E 1027,3 50
24.05.2018 22:00:00 12,2 0,3 11 6 ESE 1027,3 50
24.05.2018 21:00:00 12,8 0,2 14 8 ESE 1027,3 45
24.05.2018 20:00:00 13,8 1,1 18 10 SE 1027,3 50
24.05.2018 19:00:00 14,5 1,7 22 12 SE 1027,6 40
24.05.2018 18:00:00 14,5 2,1 25 14 SE 1028,1 50
24.05.2018 17:00:00 15,3 2,5 25 14 SE 1028,4 50
24.05.2018 16:00:00 15,5 2,3 29 16 SE 1028,7 28
24.05.2018 15:00:00 16,1 1,0 25 14 SE 1029,1 40
24.05.2018 14:00:00 15,9 0,1 29 16 SE 1029,6 30
24.05.2018 13:00:00 15,7 1,8 25 14 SE 1030,3 50
24.05.2018 12:00:00 14,8 1,7 29 16 SE 1030,6 35
24.05.2018 11:00:00 14,5 0,0 25 14 SE 1031,1 30
24.05.2018 10:00:00 14,1 1,4 22 12 SE 1031,5 50
24.05.2018 09:00:00 13,0 2,5 18 10 SE 1031,7 45
24.05.2018 08:00:00 11,6 4,6 4 2 ESE 1031,9 50
24.05.2018 07:00:00 7,5 2,8 4 2 N 1032,1 50
24.05.2018 06:00:00 5,5 2,0 7 4 NNW 1032,0 45
24.05.2018 05:00:00 3,8 1,3 7 4 NW 1031,8 40
24.05.2018 04:00:00 3,4 1,1 7 4 NW 1031,8 50
24.05.2018 03:00:00 3,8 1,2 7 4 NW 1031,5 50
24.05.2018 02:00:00 4,6 1,8 7 4 NW 1031,4 50
24.05.2018 01:00:00 4,4 2,3 7 4 NW 1031,0 50
24.05.2018 00:00:00 5,3 2,3 4 2 NW 1030,5 50
23.05.2018 23:00:00 6,1 3,3 4 2 NNW 1030,2 50
23.05.2018 22:00:00 8,4 2,2 4 2 E 1029,9 50
23.05.2018 21:00:00 9,8 0,4 11 6 SSE 1029,3 50
23.05.2018 20:00:00 11,6 1,5 14 8 SSE 1028,8 50
23.05.2018 19:00:00 12,3 1,0 14 8 SSE 1028,5 35
23.05.2018 18:00:00 12,4 1,7 14 8 SSE 1028,4 45
23.05.2018 17:00:00 13,1 1,1 18 10 SSE 1028,3 40
23.05.2018 16:00:00 13,6 1,9 18 10 SSE 1028,2 45
23.05.2018 15:00:00 14,5 1,4 18 10 SSE 1028,0 40
23.05.2018 14:00:00 13,8 -0,3 18 10 SSE 1028,0 40
23.05.2018 13:00:00 14,7 0,9 18 10 SSE 1027,7 30
23.05.2018 12:00:00 15,4 1,9 18 10 SSE 1027,1 45
23.05.2018 11:00:00 14,8 1,3 14 8 SSE 1026,9 35
23.05.2018 10:00:00 14,5 0,3 4 2 NNE 1026,6 35
23.05.2018 09:00:00 13,4 0,4 7 4 NNE 1026,0 50
23.05.2018 08:00:00 11,8 0,6 18 10 NW 1025,5 40
23.05.2018 07:00:00 11,2 0,9 25 14 NNW 1024,9 50
23.05.2018 06:00:00 10,6 3,4 18 10 NNW 1024,2 50
23.05.2018 05:00:00 10,5 4,2 11 6 NNW 1023,6 50
23.05.2018 04:00:00 11,1 4,8 18 10 WNW 1022,8 50
23.05.2018 03:00:00 10,8 5,1 7 4 NW 1022,3 50
23.05.2018 02:00:00 12,1 5,3 11 6 NW 1021,4 45
23.05.2018 01:00:00 13,2 5,6 14 8 NW 1020,3 50
23.05.2018 00:00:00 15,4 5,9 29 16 NW 1019,2 40
22.05.2018 23:00:00 17,1 5,7 29 16 NNW 1018,3 45
22.05.2018 22:00:00 12,3 8,8 0 0 N 1017,8 50
22.05.2018 21:00:00 14,2 9,2 4 2 WSW 1017,4 40
22.05.2018 20:00:00 16,7 9,4 4 2 S 1016,9 30
22.05.2018 19:00:00 18,8 9,0 4 2 SSW 1016,8 35
22.05.2018 18:00:00 18,7 8,1 11 6 SE 1017,1 30
22.05.2018 17:00:00 18,9 7,3 14 8 SE 1017,5 40
22.05.2018 16:00:00 19,4 7,8 25 14 SE 1017,5 30
22.05.2018 15:00:00 18,5 8,2 14 8 SE 1017,9 45
22.05.2018 14:00:00 17,5 9,1 14 8 SSE 1018,3 35
22.05.2018 13:00:00 17,9 9,3 18 10 SSE 1018,4 30
22.05.2018 12:00:00 18,5 9,6 7 4 SSE 1018,8 35
22.05.2018 11:00:00 16,1 8,3 11 6 SSE 1019,6 23
22.05.2018 10:00:00 16,4 8,9 11 6 SE 1019,8 28
22.05.2018 09:00:00 14,7 8,6 7 4 SE 1020,0 25
22.05.2018 08:00:00 13,6 8,2 4 2 SSE 1020,2 35
22.05.2018 07:00:00 12,8 7,9 0 0 N 1020,7 26
22.05.2018 06:00:00 9,4 6,7 0 0 N 1020,9 22
22.05.2018 05:00:00 7,0 6,4 0 0 N 1020,8 16
22.05.2018 04:00:00 5,7 5,3 0 0 N 1021,0 24
22.05.2018 03:00:00 6,0 5,6 0 0 N 1020,7 16
22.05.2018 02:00:00 6,3 5,9 0 0 N 1020,7 9
22.05.2018 01:00:00 7,4 6,8 4 2 NNW 1021,0 0,2
22.05.2018 00:00:00 8,2 7,4 0 0 N 1021,3 21
21.05.2018 23:00:00 9,2 7,3 0 0 N 1021,3 35
21.05.2018 22:00:00 11,0 7,7 0 0 N 1021,4 35
21.05.2018 21:00:00 13,0 7,4 0 0 N 1021,2 30
21.05.2018 20:00:00 14,9 7,4 4 2 S 1021,1 45
21.05.2018 19:00:00 20,9 6,0 11 6 SSE 1021,0 40
21.05.2018 18:00:00 22,2 5,2 14 8 SE 1021,2 25
21.05.2018 17:00:00 22,9 4,9 22 12 SE 1021,1 50
21.05.2018 16:00:00 23,3 5,7 22 12 SE 1021,3 50
21.05.2018 15:00:00 23,2 7,3 22 12 SE 1021,4 40
21.05.2018 14:00:00 23,4 6,2 18 10 SSE 1021,7 40
21.05.2018 13:00:00 24,5 5,3 14 8 SE 1021,7 40
21.05.2018 12:00:00 23,5 4,4 14 8 SSE 1021,9 35
21.05.2018 11:00:00 23,2 6,0 7 4 S 1022,0 35
21.05.2018 10:00:00 21,2 6,7 11 6 SSE 1022,1 45
21.05.2018 09:00:00 20,2 7,2 11 6 SSE 1022,1 45
21.05.2018 08:00:00 18,2 7,3 4 2 ESE 1022,1 45
21.05.2018 07:00:00 13,1 6,2 4 2 NNW 1022,2 40
21.05.2018 06:00:00 9,8 6,0 4 2 NNW 1022,1 50
21.05.2018 05:00:00 7,2 5,7 7 4 NNW 1021,8 40
21.05.2018 04:00:00 6,0 5,1 4 2 NNW 1021,6 50
21.05.2018 03:00:00 6,7 5,3 4 2 NW 1021,1 50
21.05.2018 02:00:00 7,5 6,0 7 4 NNW 1020,9 45
21.05.2018 01:00:00 8,4 5,9 7 4 NNW 1020,5 50
21.05.2018 00:00:00 9,8 6,0 4 2 NNW 1020,2 50
20.05.2018 23:00:00 12,1 6,8 0 0 N 1020,0 50
20.05.2018 22:00:00 16,2 5,2 7 4 ESE 1019,8 50
20.05.2018 21:00:00 21,2 1,5 7 4 SSW 1019,4 50
20.05.2018 20:00:00 23,4 0,5 11 6 S 1018,8 45
20.05.2018 19:00:00 24,1 0,4 11 6 S 1018,8 50
20.05.2018 18:00:00 23,0 4,5 7 4 S 1018,8 45
20.05.2018 17:00:00 20,8 7,1 4 2 SW 1019,0 35
20.05.2018 16:00:00 21,3 7,2 11 6 SE 1019,2 40
20.05.2018 15:00:00 19,5 6,9 18 10 SSE 1019,8 40
20.05.2018 14:00:00 17,7 5,9 14 8 SE 1020,7 35
20.05.2018 13:00:00 16,4 4,7 18 10 SSE 1021,0 40
20.05.2018 12:00:00 17,0 5,0 14 8 SE 1021,3 35
20.05.2018 11:00:00 16,3 4,3 4 2 SSE 1021,7 45
20.05.2018 10:00:00 15,3 3,7 7 4 SSE 1022,2 35
20.05.2018 09:00:00 13,8 4,1 7 4 SSE 1022,5 45
20.05.2018 08:00:00 12,5 4,7 4 2 S 1022,4 40
20.05.2018 07:00:00 9,3 3,9 0 0 N 1022,4 45
20.05.2018 06:00:00 7,3 3,5 4 2 NNW 1022,4 50
20.05.2018 05:00:00 4,8 3,1 4 2 NW 1022,4 45
20.05.2018 04:00:00 4,7 2,4 4 2 WNW 1022,6 12
20.05.2018 03:00:00 5,1 2,8 4 2 N 1022,5 45
20.05.2018 02:00:00 4,7 2,6 0 0 N 1022,5 50
20.05.2018 01:00:00 5,2 2,7 4 2 N 1022,2 45
20.05.2018 00:00:00 6,3 3,6 7 4 NNW 1021,9 50
19.05.2018 23:00:00 6,8 4,3 4 2 NNW 1021,4 50
19.05.2018 22:00:00 8,8 4,8 0 0 N 1021,0 50
19.05.2018 21:00:00 13,2 2,4 4 2 S 1020,7 45
19.05.2018 20:00:00 15,2 2,4 7 4 SE 1020,3 50
19.05.2018 19:00:00 16,0 2,0 11 6 SE 1020,1 40
19.05.2018 18:00:00 16,6 1,1 22 12 SE 1020,2 50
19.05.2018 17:00:00 16,4 0,5 25 14 SE 1020,1 45
19.05.2018 16:00:00 17,0 1,0 25 14 SE 1020,0 40
19.05.2018 15:00:00 16,9 2,1 25 14 SE 1020,1 50
19.05.2018 14:00:00 16,8 0,4 25 14 SE 1020,5 35
19.05.2018 13:00:00 16,8 0,4 25 14 SE 1020,5 35
19.05.2018 12:00:00 15,8 0,4 22 12 SE 1020,9 35

tt = Température de l'air
td = dewpoint
ff = Vitesse du vent
dd = Direction du vent
ppp = reduced air pressure
vv = visibility

stations d'obs. à proximité